TimeMDT,TemperatureF,Dew PointF,Humidity,Sea Level PressureIn,VisibilityMPH,Wind Direction,Wind SpeedMPH,Gust SpeedMPH,PrecipitationIn,Events,Conditions,WindDirDegrees,DateUTC
12:53 AM,54.0,35.1,49,29.97,10.0,WSW,19.6,-,N/A,,Clear,240,2013-10-07 06:53:00
1:53 AM,48.9,36.0,61,29.97,10.0,SW,11.5,-,N/A,,Clear,220,2013-10-07 07:53:00
2:53 AM,45.0,36.0,71,29.96,10.0,South,8.1,-,N/A,,Clear,190,2013-10-07 08:53:00
3:53 AM,50.0,35.1,57,29.92,10.0,SW,13.8,-,N/A,,Clear,220,2013-10-07 09:53:00
4:53 AM,51.1,35.1,54,29.91,10.0,SW,12.7,-,N/A,,Clear,220,2013-10-07 10:53:00
5:53 AM,46.0,35.1,66,29.90,10.0,South,11.5,-,N/A,,Clear,190,2013-10-07 11:53:00
6:53 AM,51.1,33.1,50,29.88,10.0,SW,17.3,-,N/A,,Partly Cloudy,230,2013-10-07 12:53:00
7:53 AM,50.0,34.0,54,29.87,10.0,SW,12.7,-,N/A,,Partly Cloudy,220,2013-10-07 13:53:00
8:53 AM,53.1,35.1,50,29.86,10.0,SW,10.4,-,N/A,,Partly Cloudy,220,2013-10-07 14:53:00
9:53 AM,55.9,37.0,49,29.83,10.0,WSW,18.4,-,N/A,,Mostly Cloudy,240,2013-10-07 15:53:00
10:53 AM,60.1,37.9,44,29.81,10.0,SW,16.1,-,N/A,,Mostly Cloudy,220,2013-10-07 16:53:00
11:53 AM,61.0,37.9,42,29.80,10.0,SW,17.3,25.3,N/A,,Mostly Cloudy,230,2013-10-07 17:53:00
12:53 PM,61.0,37.0,41,29.77,10.0,SW,17.3,-,N/A,,Mostly Cloudy,230,2013-10-07 18:53:00
1:53 PM,59.0,37.0,44,29.76,10.0,WSW,20.7,-,N/A,,Scattered Clouds,240,2013-10-07 19:53:00
2:53 PM,62.1,37.0,39,29.74,10.0,SW,18.4,-,N/A,,Scattered Clouds,230,2013-10-07 20:53:00
3:53 PM,64.0,37.0,37,29.71,10.0,SW,18.4,-,N/A,,Scattered Clouds,230,2013-10-07 21:53:00
4:53 PM,62.1,37.0,39,29.70,10.0,SW,16.1,-,N/A,,Scattered Clouds,230,2013-10-07 22:53:00
5:53 PM,62.1,39.0,43,29.69,10.0,SW,10.4,-,N/A,,Scattered Clouds,220,2013-10-07 23:53:00
6:53 PM,61.0,37.9,42,29.68,10.0,SW,9.2,-,N/A,,Scattered Clouds,220,2013-10-08 00:53:00
7:53 PM,59.0,39.0,48,29.68,10.0,South,8.1,-,N/A,,Clear,190,2013-10-08 01:53:00
8:53 PM,60.1,39.0,46,29.67,10.0,WSW,11.5,-,N/A,,Partly Cloudy,240,2013-10-08 02:53:00
9:53 PM,59.0,37.9,46,29.66,10.0,WSW,12.7,-,N/A,,Clear,250,2013-10-08 03:53:00
10:53 PM,60.1,37.9,44,29.65,10.0,WSW,15.0,-,N/A,,Clear,240,2013-10-08 04:53:00
11:53 PM,60.1,37.9,44,29.64,10.0,WSW,15.0,-,N/A,,Clear,250,2013-10-08 05:53:00